EW4074 Weather Reports


Display with metric or nautical units.
time (UTC)temp
F
wind
direction
speed
MPH
gust
MPH
rain 1hr
in
rain 24hr
in
rain mn
in
humidity
%
barometer
mb
20260510145404 70 248 1.0 3.0 0.00 0.00 0.00 68 1041.4
20260510144900 70 232 1.0 4.0 0.00 0.00 0.00 69 1041.5
20260510144622 70 225 1.0 4.0 0.00 0.00 0.00 66 1041.5
20260510143848 70 209 1.0 7.0 0.00 0.00 0.00 67 1041.5
20260510143344 70 194 2.0 7.0 0.00 0.00 0.00 68 1041.4
20260510142836 70 228 2.0 8.0 0.00 0.00 0.00 67 1041.4
20260510142557 70 288 2.0 8.0 0.00 0.00 0.00 67 1041.4
20260510142043 70 244 1.0 7.0 0.00 0.00 0.00 67 1041.3
20260510141319 70 244 2.0 6.0 0.00 0.00 0.00 68 1041.3
20260510140812 71 253 1.0 6.0 0.00 0.00 0.00 66 1041.3
20260510140527 71 216 0.0 2.0 0.00 0.00 0.00 71 1041.2
20260510135801 71 164 0.0 2.0 0.00 0.00 0.00 71 1041.2
20260510135254 70 207 0.0 2.0 0.00 0.00 0.00 73 1041.2
20260510135006 69 69 1.0 3.0 0.00 0.00 0.00 75 1041.3
20260510134459 69 213 1.0 3.0 0.00 0.00 0.00 73 1041.3
20260510133735 68 197 0.0 2.0 0.00 0.00 0.00 74 1041.3
20260510133229 67 107 0.0 0.0 0.00 0.00 0.00 76 1041.3
20260510132945 67 119 0.0 0.0 0.00 0.00 0.00 76 1041.3
20260510132218 66 115 0.0 1.0 0.00 0.00 0.00 77 1041.3
20260510131712 65 246 0.0 1.0 0.00 0.00 0.00 77 1041.4
20260510131206 64 243 0.0 2.0 0.00 0.00 0.00 80 1041.4
20260510130656 63 254 1.0 2.0 0.00 0.00 0.00 78 1041.4
20260510130154 63 241 1.0 2.0 0.00 0.00 0.00 80 1041.3
20260510125648 62 208 0.0 2.0 0.00 0.00 0.00 83 1041.3
20260510125142 61 78 0.0 0.0 0.00 0.00 0.00 87 1041.3
20260510124858 59 329 0.0 0.0 0.00 0.00 0.00 91 1040.9
20260510124357 58 265 0.0 1.0 0.00 0.00 0.00 93 1040.9
20260510123621 58 131 0.0 2.0 0.00 0.00 0.00 97 1040.9
20260510123122 57 145 0.0 1.0 0.00 0.00 0.00 99 1040.8
20260510122845 57 142 0.0 0.0 0.00 0.00 0.00 99 1040.8
20260510122122 56 141 0.0 0.0 0.00 0.00 0.00 99 1040.8
20260510121621 55 141 0.0 0.0 0.00 0.00 0.00 99 1040.8
20260510121344 55 141 0.0 1.0 0.00 0.00 0.00 99 1040.8
20260510120622 54 141 0.0 1.0 0.00 0.00 0.00 99 1040.8
20260510120122 53 141 0.0 0.0 0.00 0.00 0.00 99 1041.1
20260510115622 51 141 0.0 0.0 0.00 0.00 0.00 99 1041.1
20260510115115 50 141 0.0 0.0 0.00 0.00 0.00 99 1041.0
20260510114606 49 141 0.0 0.0 0.00 0.00 0.00 99 1041.0
20260510114334 48 141 0.0 0.0 0.00 0.00 0.00 99 1041.0
20260510113605 48 141 0.0 0.0 0.00 0.00 0.00 99 1040.8
20260510113106 47 141 0.0 0.0 0.00 0.00 0.00 99 1040.8
20260510112605 47 141 0.0 0.0 0.00 0.00 0.00 99 1040.8
20260510112105 47 141 0.0 0.0 0.00 0.00 0.00 99 1040.7
20260510111605 46 141 0.0 0.0 0.00 0.00 0.00 99 1040.7
20260510111106 46 141 0.0 1.0 0.00 0.00 0.00 99 1040.7
20260510110606 45 141 0.0 1.0 0.00 0.00 0.00 99 1040.3
20260510110059 45 141 0.0 0.0 0.00 0.00 0.00 99 1040.3
20260510105549 44 141 0.0 0.0 0.00 0.00 0.00 99 1040.3
20260510105521 44 141 0.0 0.0 0.00 0.00 0.00 99 1040.3
20260510104527 44 141 0.0 0.0 0.00 0.00 0.00 99 1040.3
20260510104239 44 141 0.0 0.0 0.00 0.00 0.00 99 1040.3
20260510103516 44 141 0.0 0.0 0.00 0.00 0.00 99 1040.1
20260510103236 44 141 0.0 0.0 0.00 0.00 0.00 99 1040.1
20260510102504 44 141 0.0 0.0 0.00 0.00 0.00 99 1040.1
20260510101958 44 141 0.0 0.0 0.00 0.00 0.00 99 1039.7
20260510101451 44 141 0.0 0.0 0.00 0.00 0.00 99 1039.7
20260510100945 44 141 0.0 0.0 0.00 0.00 0.00 99 1039.7
20260510100434 44 141 0.0 0.0 0.00 0.00 0.00 98 1039.3
20260510095934 44 141 0.0 0.0 0.00 0.00 0.00 98 1039.3
20260510095428 44 141 0.0 0.0 0.00 0.00 0.00 98 1039.3
20260510094922 44 141 0.0 0.0 0.00 0.00 0.00 99 1039.2
20260510094415 44 141 0.0 0.0 0.00 0.00 0.00 98 1039.2
20260510093909 44 141 0.0 0.0 0.00 0.00 0.00 98 1039.2
20260510093404 44 141 0.0 0.0 0.00 0.00 0.00 98 1039.1
20260510092853 44 141 0.0 0.0 0.00 0.00 0.00 98 1039.1
20260510092351 44 141 0.0 0.0 0.00 0.00 0.00 98 1039.1
20260510091845 44 141 0.0 0.0 0.00 0.00 0.00 98 1039.2
20260510091339 44 141 0.0 0.0 0.00 0.00 0.00 98 1039.2
20260510090834 44 141 0.0 0.0 0.00 0.00 0.00 98 1039.2
20260510090328 45 142 0.0 0.0 0.00 0.00 0.00 98 1039.1
20260510085822 45 141 0.0 0.0 0.00 0.00 0.00 98 1039.1
20260510085310 45 141 0.0 0.0 0.00 0.00 0.00 98 1039.1
20260510084811 45 141 0.0 0.0 0.00 0.00 0.00 98 1039.1
20260510084303 45 141 0.0 0.0 0.00 0.00 0.00 98 1039.1
20260510083759 46 141 0.0 0.0 0.00 0.00 0.00 98 1039.1
20260510083251 45 141 0.0 0.0 0.00 0.00 0.00 99 1039.1
20260510082747 45 141 0.0 0.0 0.00 0.00 0.00 99 1039.1
20260510082240 45 141 0.0 0.0 0.00 0.00 0.00 99 1039.1
20260510081728 45 142 0.0 0.0 0.00 0.00 0.00 98 1039.1
20260510081448 45 141 0.0 0.0 0.00 0.00 0.00 98 1039.1
20260510080721 45 141 0.0 0.0 0.00 0.00 0.00 98 1039.1
20260510080439 45 142 0.0 0.0 0.00 0.00 0.00 98 1039.1
20260510075709 45 141 0.0 0.0 0.00 0.00 0.00 98 1039.1
20260510075204 45 141 0.0 0.0 0.00 0.00 0.00 98 1039.1
20260510074657 45 141 0.0 0.0 0.00 0.00 0.00 98 1039.1
20260510074146 45 141 0.0 0.0 0.00 0.00 0.00 98 1039.1
20260510073645 45 142 0.0 0.0 0.00 0.00 0.00 98 1039.1
20260510073403 44 141 0.0 0.0 0.00 0.00 0.00 98 1039.0
20260510072633 44 141 0.0 0.0 0.00 0.00 0.00 98 1039.0
20260510072127 44 141 0.0 0.0 0.00 0.00 0.00 98 1038.6
20260510071842 44 142 0.0 0.0 0.00 0.00 0.00 98 1038.6
20260510071338 44 141 0.0 0.0 0.00 0.00 0.00 98 1038.6
20260510070605 44 141 0.0 0.0 0.00 0.00 0.00 98 1038.6
20260510070103 44 141 0.0 0.0 0.00 0.00 0.00 98 1038.6
20260510065820 44 141 0.0 0.0 0.00 0.00 0.00 97 1038.6
20260510065051 44 141 0.0 0.0 0.00 0.00 0.00 97 1038.5
20260510064545 45 141 0.0 0.0 0.00 0.00 0.00 97 1038.5
20260510064039 45 141 0.0 0.0 0.00 0.00 0.00 97 1038.5
20260510063532 45 141 0.0 0.0 0.00 0.00 0.00 98 1038.6
20260510063024 45 141 0.0 0.0 0.00 0.00 0.00 98 1038.6
20260510062520 45 141 0.0 0.0 0.00 0.00 0.00 98 1038.6
20260510062016 45 142 0.0 0.0 0.00 0.00 0.00 97 1038.6
20260510061509 46 141 0.0 0.0 0.00 0.00 0.00 97 1038.6
20260510061227 46 142 0.0 0.0 0.00 0.00 0.00 97 1038.6
20260510060456 46 141 0.0 0.0 0.00 0.00 0.00 97 1038.6
20260510055951 46 141 0.0 0.0 0.00 0.00 0.00 98 1038.6
20260510055440 46 141 0.0 0.0 0.00 0.00 0.00 97 1038.6
20260510054939 46 141 0.0 0.0 0.00 0.00 0.00 97 1038.8
20260510054433 46 141 0.0 0.0 0.00 0.00 0.00 97 1038.8
20260510053927 46 141 0.0 0.0 0.00 0.00 0.00 97 1038.8
20260510053421 47 141 0.0 0.0 0.00 0.00 0.00 97 1038.7
20260510052914 47 141 0.0 0.0 0.00 0.00 0.00 97 1038.7
20260510052410 47 141 0.0 0.0 0.00 0.00 0.00 97 1038.7
20260510052125 47 141 0.0 2.0 0.00 0.00 0.00 97 1038.7
20260510051357 47 142 1.0 3.0 0.00 0.00 0.00 97 1038.7
20260510050852 47 182 1.0 3.0 0.00 0.00 0.00 97 1038.7
20260510050345 47 192 0.0 1.0 0.00 0.00 0.00 97 1038.6
20260510050105 47 192 0.0 1.0 0.00 0.00 0.00 97 1038.6
20260510045345 47 192 0.0 0.0 0.00 0.00 0.00 97 1038.6
20260510045107 47 192 0.0 0.0 0.00 0.00 0.00 97 1038.5
20260510044604 47 192 0.0 1.0 0.00 0.00 0.00 97 1038.5
20260510043841 47 192 0.0 1.0 0.00 0.00 0.00 97 1038.5
20260510043339 47 192 0.0 0.0 0.00 0.00 0.00 97 1038.5
20260510042837 48 192 0.0 0.0 0.00 0.00 0.00 97 1038.5
20260510042335 48 192 0.0 0.0 0.00 0.00 0.00 97 1038.5
20260510041836 48 192 0.0 0.0 0.00 0.00 0.00 97 1038.5
20260510041553 48 192 0.0 0.0 0.00 0.00 0.00 96 1038.5
20260510040830 48 192 0.0 0.0 0.00 0.00 0.00 97 1038.5
20260510040330 48 192 0.0 0.0 0.00 0.00 0.00 96 1038.5
20260510035829 48 192 0.0 0.0 0.00 0.00 0.00 96 1038.5
20260510035327 48 192 0.0 0.0 0.00 0.00 0.00 96 1038.5
20260510034825 48 192 0.0 0.0 0.00 0.00 0.00 96 1038.5
20260510034323 48 192 0.0 0.0 0.00 0.00 0.00 96 1038.5
20260510033823 48 192 0.0 0.0 0.00 0.00 0.00 96 1038.5
20260510033324 49 192 0.0 0.0 0.00 0.00 0.00 96 1038.4
20260510033049 49 192 0.0 0.0 0.00 0.00 0.00 96 1038.4
20260510032321 49 192 0.0 0.0 0.00 0.00 0.00 96 1038.4
20260510031819 49 192 0.0 0.0 0.00 0.00 0.00 96 1038.5
20260510031318 49 192 0.0 0.0 0.00 0.00 0.00 96 1038.5
20260510030818 49 192 0.0 0.0 0.00 0.00 0.00 96 1038.5
20260510030319 49 192 0.0 0.0 0.00 0.00 0.00 96 1038.5
20260510025819 49 192 0.0 0.0 0.00 0.00 0.00 96 1038.5
20260510025318 49 192 0.0 0.0 0.00 0.00 0.00 95 1038.5
20260510024822 49 192 0.0 0.0 0.00 0.00 0.00 95 1038.4
20260510024323 49 192 0.0 0.0 0.00 0.00 0.00 95 1038.4
20260510023816 49 192 0.0 0.0 0.00 0.00 0.00 95 1038.4
20260510023304 49 192 0.0 0.0 0.00 0.00 0.00 95 1038.2
20260510022803 49 192 0.0 0.0 0.00 0.00 0.00 94 1038.2
20260510022306 49 192 0.0 0.0 0.00 0.00 0.00 94 1038.2
20260510021802 50 192 0.0 0.0 0.00 0.00 0.00 94 1037.9
20260510021303 50 192 0.0 0.0 0.00 0.00 0.00 94 1037.9
20260510020803 50 192 0.0 0.0 0.00 0.00 0.00 94 1037.9
20260510020303 50 192 0.0 0.0 0.00 0.00 0.00 93 1037.7
20260510015802 50 192 0.0 0.0 0.00 0.00 0.00 93 1037.7
20260510015306 51 192 0.0 0.0 0.00 0.00 0.00 92 1037.7
20260510014756 51 192 0.0 0.0 0.00 0.00 0.00 92 1037.5
20260510014246 51 192 0.0 0.0 0.00 0.00 0.00 92 1037.5
20260510014000 52 192 0.0 0.0 0.00 0.00 0.00 91 1037.5
20260510013235 52 192 0.0 0.0 0.00 0.00 0.00 91 1037.4
20260510012728 53 192 0.0 0.0 0.00 0.00 0.00 91 1037.4
20260510012218 53 192 0.0 0.0 0.00 0.00 0.00 91 1037.4
20260510011941 53 192 0.0 0.0 0.00 0.00 0.00 90 1037.0
20260510011206 53 192 0.0 0.0 0.00 0.00 0.00 89 1037.0
20260510010704 54 192 0.0 0.0 0.00 0.00 0.00 89 1037.0
20260510010158 54 192 0.0 0.0 0.00 0.00 0.00 88 1036.9
20260510005652 55 192 0.0 0.0 0.00 0.00 0.00 87 1036.9
20260510005146 55 192 0.0 0.0 0.00 0.00 0.00 86 1036.9
20260510004641 56 192 0.0 0.0 0.00 0.00 0.00 85 1036.5
20260510004400 56 192 0.0 0.0 0.00 0.00 0.00 85 1036.5
20260510003623 57 192 0.0 0.0 0.00 0.00 0.00 83 1036.5
20260510003119 58 192 0.0 0.0 0.00 0.00 0.00 82 1036.5
20260510002841 58 192 0.0 0.0 0.00 0.00 0.00 81 1036.5
20260510002111 59 192 0.0 0.0 0.00 0.00 0.00 79 1036.5
20260510001604 60 192 0.0 0.0 0.00 0.00 0.00 79 1036.5
20260510001059 60 192 0.0 0.0 0.00 0.00 0.00 79 1036.5
20260510000552 61 192 0.0 0.0 0.00 0.00 0.00 78 1036.5
20260510000042 62 192 0.0 0.0 0.00 0.00 0.00 77 1036.5
20260509235540 63 192 0.0 0.0 0.00 0.00 0.00 75 1036.5
20260509235034 64 192 0.0 0.0 0.00 0.00 0.00 73 1036.4
20260509234748 64 192 0.0 0.0 0.00 0.00 0.00 72 1036.4
20260509234018 65 192 0.0 0.0 0.00 0.00 0.00 72 1036.4
20260509233516 66 192 0.0 0.0 0.00 0.00 0.00 70 1036.5
20260509233010 67 192 0.0 0.0 0.00 0.00 0.00 68 1036.5
20260509232725 68 192 0.0 0.0 0.00 0.00 0.00 65 1036.5
20260509231958 69 192 0.0 0.0 0.00 0.00 0.00 63 1036.5
20260509231452 69 192 0.0 0.0 0.00 0.00 0.00 62 1036.5
20260509230946 70 192 0.0 0.0 0.00 0.00 0.00 61 1036.5
20260509230440 71 192 0.0 0.0 0.00 0.00 0.00 59 1036.5
20260509230420 71 192 0.0 2.0 0.00 0.00 0.00 57 1036.5
20260509225649 72 192 0.0 2.0 0.00 0.00 0.00 57 1036.5
20260509224917 73 190 0.0 1.0 0.00 0.00 0.00 56 1036.5
20260509224416 73 164 0.0 0.0 0.00 0.00 0.00 57 1036.5
20260509223910 74 164 1.0 2.0 0.00 0.00 0.00 55 1036.5
20260509223404 73 164 1.0 2.0 0.00 0.00 0.00 54 1036.5
20260509222858 74 93 0.0 2.0 0.00 0.00 0.00 54 1036.5
20260509222610 74 126 0.0 2.0 0.00 0.00 0.00 56 1036.5
20260509221846 74 128 0.0 2.0 0.00 0.00 0.00 55 1036.5
20260509221335 73 116 1.0 4.0 0.00 0.00 0.00 56 1036.5
20260509220834 73 136 2.0 4.0 0.00 0.00 0.00 58 1036.5
20260509220328 73 143 1.0 4.0 0.00 0.00 0.00 56 1036.5
20260509215817 73 169 0.0 3.0 0.00 0.00 0.00 56 1036.5
20260509215534 73 11 0.0 3.0 0.00 0.00 0.00 58 1036.5
20260509214811 72 76 0.0 3.0 0.00 0.00 0.00 58 1036.4
20260509214304 71 135 0.0 3.0 0.00 0.00 0.00 58 1036.4
20260509213754 71 273 0.0 2.0 0.00 0.00 0.00 59 1036.4
20260509213252 71 69 0.0 2.0 0.00 0.00 0.00 60 1036.4
20260509213009 72 59 0.0 2.0 0.00 0.00 0.00 58 1036.4
20260509212240 72 175 1.0 3.0 0.00 0.00 0.00 57 1036.4
20260509211734 73 148 1.0 3.0 0.00 0.00 0.00 57 1036.3
20260509211228 73 146 1.0 3.0 0.00 0.00 0.00 55 1036.3
20260509210943 73 36 1.0 4.0 0.00 0.00 0.00 58 1036.3
20260509210211 73 99 1.0 4.0 0.00 0.00 0.00 57 1036.1
20260509205709 74 290 1.0 4.0 0.00 0.00 0.00 58 1036.1
20260509205205 73 322 1.0 5.0 0.00 0.00 0.00 55 1036.1
20260509204657 73 258 1.0 5.0 0.00 0.00 0.00 57 1036.2
20260509204153 73 44 1.0 4.0 0.00 0.00 0.00 56 1036.2
20260509203906 72 167 1.0 2.0 0.00 0.00 0.00 57 1036.2
20260509203140 71 265 1.0 3.0 0.00 0.00 0.00 59 1036.4
20260509202630 71 134 1.0 4.0 0.00 0.00 0.00 60 1036.4
20260509202123 71 100 0.0 4.0 0.00 0.00 0.00 59 1036.4
20260509201622 71 317 0.0 2.0 0.00 0.00 0.00 60 1036.4
20260509201600 71 306 1.0 6.0 0.00 0.00 0.00 61 1036.4
20260509200610 71 297 1.0 6.0 0.00 0.00 0.00 60 1036.5
20260509200104 71 101 1.0 6.0 0.00 0.00 0.00 58 1036.5
20260509195813 72 197 1.0 6.0 0.00 0.00 0.00 56 1036.5
20260509195052 72 117 1.0 6.0 0.00 0.00 0.00 58 1036.6
20260509194806 73 105 1.0 6.0 0.00 0.00 0.00 55 1036.6
20260509194039 72 57 1.0 4.0 0.00 0.00 0.00 57 1036.6
20260509193533 71 330 1.0 6.0 0.00 0.00 0.00 56 1036.6
20260509193027 71 232 2.0 6.0 0.00 0.00 0.00 60 1036.6
20260509192522 71 161 1.0 8.0 0.00 0.00 0.00 59 1036.6
20260509192015 70 309 2.0 8.0 0.00 0.00 0.00 57 1036.7
20260509191509 70 315 1.0 4.0 0.00 0.00 0.00 61 1036.7
20260509190959 70 170 1.0 5.0 0.00 0.00 0.00 61 1036.7
20260509190717 69 333 2.0 11.0 0.00 0.00 0.00 60 1036.7
20260509185951 69 136 2.0 11.0 0.00 0.00 0.00 64 1036.7
20260509185446 69 25 1.0 6.0 0.00 0.00 0.00 61 1036.7
20260509184940 70 159 2.0 6.0 0.00 0.00 0.00 63 1037.0
20260509184429 70 227 2.0 8.0 0.00 0.00 0.00 67 1037.0
20260509183927 69 207 2.0 8.0 0.00 0.00 0.00 64 1037.0
20260509183417 69 234 2.0 6.0 0.00 0.00 0.00 62 1037.3
20260509183135 69 233 2.0 8.0 0.00 0.00 0.00 63 1037.3
20260509182409 68 261 2.0 8.0 0.00 0.00 0.00 63 1037.3
20260509181903 69 329 2.0 8.0 0.00 0.00 0.00 64 1037.5
20260509181620 69 272 2.0 6.0 0.00 0.00 0.00 65 1037.5
20260509180851 68 246 1.0 6.0 0.00 0.00 0.00 65 1037.5
20260509180345 67 147 1.0 6.0 0.00 0.00 0.00 67 1037.5
20260509175835 67 300 1.0 6.0 0.00 0.00 0.00 66 1037.5
20260509175334 66 151 1.0 4.0 0.00 0.00 0.00 68 1037.5
20260509174827 65 274 1.0 6.0 0.00 0.00 0.00 69 1038.0
20260509174322 64 267 1.0 6.0 0.00 0.00 0.00 69 1038.0
20260509174041 64 145 1.0 4.0 0.00 0.00 0.00 70 1038.0
20260509173308 63 201 1.0 4.0 0.00 0.00 0.00 70 1038.5
20260509172805 63 73 1.0 2.0 0.00 0.00 0.00 71 1038.5
20260509172253 63 126 1.0 7.0 0.00 0.00 0.00 72 1038.5
20260509171752 63 91 1.0 7.0 0.00 0.00 0.00 70 1038.5
20260509171246 63 101 1.0 6.0 0.00 0.00 0.00 71 1038.5
20260509170740 63 182 1.0 6.0 0.00 0.00 0.00 73 1038.5
20260509170233 63 30 1.0 5.0 0.00 0.00 0.00 73 1039.0
20260509165723 62 82 1.0 5.0 0.00 0.00 0.00 72 1039.0
20260509165221 62 104 1.0 4.0 0.00 0.00 0.00 72 1039.0
20260509164715 62 112 1.0 4.0 0.00 0.00 0.00 73 1038.9
20260509164209 62 125 1.0 5.0 0.00 0.00 0.00 73 1038.9
20260509163702 62 78 1.0 5.0 0.00 0.00 0.00 72 1038.9
20260509163157 62 107 1.0 5.0 0.00 0.00 0.00 74 1038.5
20260509162651 62 329 1.0 5.0 0.00 0.00 0.00 74 1038.5
20260509162145 63 301 1.0 3.0 0.00 0.00 0.00 71 1038.5
20260509161639 63 308 1.0 4.0 0.00 0.00 0.00 70 1038.4
20260509161347 63 300 1.0 5.0 0.00 0.00 0.00 71 1038.4
20260509160627 64 50 1.0 5.0 0.00 0.00 0.00 70 1038.6
20260509160121 64 263 1.0 5.0 0.00 0.00 0.00 74 1038.6
20260509155615 63 78 1.0 4.0 0.00 0.00 0.00 72 1038.6
20260509155108 63 38 1.0 4.0 0.00 0.00 0.00 71 1038.7
20260509154602 64 269 0.0 2.0 0.00 0.00 0.00 68 1038.7
20260509154057 64 273 1.0 3.0 0.00 0.00 0.00 69 1038.7
20260509153546 64 128 1.0 5.0 0.00 0.00 0.00 68 1038.7
20260509153045 64 253 1.0 5.0 0.00 0.00 0.00 70 1038.7
20260509152539 63 153 2.0 5.0 0.00 0.00 0.00 69 1038.7
20260509152300 64 34 2.0 5.0 0.00 0.00 0.00 72 1038.7
20260509151527 63 76 1.0 5.0 0.00 0.00 0.00 70 1038.7
20260509151017 63 171 1.0 3.0 0.00 0.00 0.00 72 1038.7
20260509150515 62 97 1.0 3.0 0.00 0.00 0.00 70 1038.6
20260509150009 62 273 1.0 6.0 0.00 0.00 0.00 70 1038.6
20260509145721 62 326 1.0 6.0 0.00 0.00 0.00 71 1038.6